Time,TemperatureF,DewpointF,PressureIn,WindDirection,WindDirectionDegrees,WindSpeedMPH,WindSpeedGustMPH,Humidity,HourlyPrecipIn,Conditions,Clouds,dailyrainin,SoftwareType,DateUTC
2013-10-07 00:03:00,52.0,39.0,29.93,North,-999,-999.0,-999.0,61,-99.99,,,-99.99,,2013-10-07 05:03:00,
2013-10-07 00:22:00,52.0,39.0,29.93,North,-999,-999.0,-999.0,61,-99.99,,,-99.99,,2013-10-07 05:22:00,
2013-10-07 00:43:00,54.0,41.0,29.92,North,-999,-999.0,-999.0,62,-99.99,,,-99.99,,2013-10-07 05:43:00,
2013-10-07 01:12:00,54.0,39.0,29.92,North,-999,-999.0,-999.0,58,-99.99,,,-99.99,,2013-10-07 06:12:00,
2013-10-07 01:21:00,54.0,39.0,29.92,North,-999,-999.0,-999.0,58,-99.99,,,-99.99,,2013-10-07 06:21:00,
2013-10-07 01:42:00,54.0,39.0,29.91,North,-999,-999.0,-999.0,58,-99.99,,,-99.99,,2013-10-07 06:42:00,
2013-10-07 01:53:00,54.0,37.0,29.91,North,-999,-999.0,-999.0,54,-99.99,,,-99.99,,2013-10-07 06:53:00,
2013-10-07 02:01:00,54.0,37.0,29.91,North,-999,-999.0,-999.0,54,-99.99,,,-99.99,,2013-10-07 07:01:00,
2013-10-07 02:22:00,54.0,39.0,29.91,North,-999,-999.0,-999.0,58,-99.99,,,-99.99,,2013-10-07 07:22:00,
2013-10-07 02:42:00,52.0,37.0,29.91,North,-999,-999.0,-999.0,57,-99.99,,,-99.99,,2013-10-07 07:42:00,
2013-10-07 02:52:00,52.0,37.0,29.91,North,-999,-999.0,-999.0,57,-99.99,,,-99.99,,2013-10-07 07:52:00,
2013-10-07 03:03:00,52.0,37.0,29.91,North,-999,-999.0,-999.0,57,-99.99,,,-99.99,,2013-10-07 08:03:00,
2013-10-07 03:21:00,52.0,37.0,29.91,North,-999,-999.0,-999.0,57,-99.99,,,-99.99,,2013-10-07 08:21:00,
2013-10-07 03:42:00,52.0,39.0,29.92,North,-999,-999.0,-999.0,61,-99.99,,,-99.99,,2013-10-07 08:42:00,
2013-10-07 04:11:00,50.0,39.0,29.92,North,-999,-999.0,-999.0,66,-99.99,,,-99.99,,2013-10-07 09:11:00,
2013-10-07 04:21:00,50.0,39.0,29.92,North,-999,-999.0,-999.0,66,-99.99,,,-99.99,,2013-10-07 09:21:00,
2013-10-07 04:43:00,48.0,39.0,29.92,North,-999,-999.0,-999.0,70,-99.99,,,-99.99,,2013-10-07 09:43:00,
2013-10-07 05:23:00,46.0,39.0,29.93,North,-999,-999.0,-999.0,75,-99.99,,,-99.99,,2013-10-07 10:23:00,
2013-10-07 05:42:00,46.0,39.0,29.93,North,-999,-999.0,-999.0,75,-99.99,,,-99.99,,2013-10-07 10:42:00,
2013-10-07 05:53:00,45.0,39.0,29.94,North,-999,-999.0,-999.0,81,-99.99,,,-99.99,,2013-10-07 10:53:00,
2013-10-07 06:02:00,45.0,39.0,29.94,North,-999,-999.0,-999.0,81,-99.99,,,-99.99,,2013-10-07 11:02:00,
2013-10-07 06:22:00,45.0,39.0,29.94,North,-999,-999.0,-999.0,81,-99.99,,,-99.99,,2013-10-07 11:22:00,
2013-10-07 06:42:00,45.0,39.0,29.95,North,-999,-999.0,-999.0,81,-99.99,,,-99.99,,2013-10-07 11:42:00,
2013-10-07 07:22:00,43.0,37.0,29.96,North,-999,-999.0,-999.0,81,-99.99,,,-99.99,,2013-10-07 12:22:00,
2013-10-07 07:43:00,43.0,37.0,29.97,North,-999,-999.0,-999.0,81,-99.99,,,-99.99,,2013-10-07 12:43:00,
2013-10-07 08:22:00,41.0,37.0,29.97,North,-999,-999.0,-999.0,86,-99.99,,,-99.99,,2013-10-07 13:22:00,
2013-10-07 08:42:00,43.0,39.0,29.98,North,-999,-999.0,-999.0,86,-99.99,,,-99.99,,2013-10-07 13:42:00,
2013-10-07 09:22:00,48.0,43.0,29.99,North,-999,-999.0,-999.0,81,-99.99,,,-99.99,,2013-10-07 14:22:00,
2013-10-07 09:42:00,48.0,43.0,29.99,North,-999,-999.0,-999.0,81,-99.99,,,-99.99,,2013-10-07 14:42:00,
2013-10-07 09:52:00,52.0,43.0,30.00,North,-999,-999.0,-999.0,71,-99.99,,,-99.99,,2013-10-07 14:52:00,
2013-10-07 10:01:00,52.0,43.0,30.00,North,-999,-999.0,-999.0,71,-99.99,,,-99.99,,2013-10-07 15:01:00,
2013-10-07 10:22:00,54.0,43.0,30.00,North,-999,-999.0,-999.0,66,-99.99,,,-99.99,,2013-10-07 15:22:00,
2013-10-07 10:43:00,55.0,45.0,30.01,North,-999,-999.0,-999.0,66,-99.99,,,-99.99,,2013-10-07 15:43:00,
2013-10-07 10:53:00,55.0,45.0,30.01,North,-999,-999.0,-999.0,66,-99.99,,,-99.99,,2013-10-07 15:53:00,
2013-10-07 11:03:00,55.0,45.0,30.01,North,-999,-999.0,-999.0,66,-99.99,,,-99.99,,2013-10-07 16:03:00,
2013-10-07 11:23:00,57.0,43.0,30.01,North,-999,-999.0,-999.0,58,-99.99,,,-99.99,,2013-10-07 16:23:00,
2013-10-07 11:43:00,59.0,43.0,30.02,North,-999,-999.0,-999.0,54,-99.99,,,-99.99,,2013-10-07 16:43:00,
2013-10-07 11:53:00,61.0,43.0,30.01,North,-999,-999.0,-999.0,51,-99.99,,,-99.99,,2013-10-07 16:53:00,
2013-10-07 12:03:00,61.0,43.0,30.01,North,-999,-999.0,-999.0,51,-99.99,,,-99.99,,2013-10-07 17:03:00,
2013-10-07 12:22:00,61.0,39.0,30.01,North,-999,-999.0,-999.0,44,-99.99,,,-99.99,,2013-10-07 17:22:00,
2013-10-07 12:42:00,63.0,37.0,30.01,North,-999,-999.0,-999.0,39,-99.99,,,-99.99,,2013-10-07 17:42:00,
2013-10-07 13:22:00,64.0,39.0,30.01,North,-999,-999.0,-999.0,39,-99.99,,,-99.99,,2013-10-07 18:22:00,
2013-10-07 13:42:00,66.0,37.0,30.00,North,-999,-999.0,-999.0,34,-99.99,,,-99.99,,2013-10-07 18:42:00,
2013-10-07 14:22:00,68.0,36.0,29.99,North,-999,-999.0,-999.0,30,-99.99,,,-99.99,,2013-10-07 19:22:00,
2013-10-07 14:42:00,68.0,36.0,29.98,North,-999,-999.0,-999.0,30,-99.99,,,-99.99,,2013-10-07 19:42:00,
2013-10-07 14:52:00,70.0,36.0,29.98,North,-999,-999.0,-999.0,28,-99.99,,,-99.99,,2013-10-07 19:52:00,
2013-10-07 15:02:00,70.0,36.0,29.98,North,-999,-999.0,-999.0,28,-99.99,,,-99.99,,2013-10-07 20:02:00,
2013-10-07 15:12:00,70.0,36.0,29.98,North,-999,-999.0,-999.0,28,-99.99,,,-99.99,,2013-10-07 20:12:00,
2013-10-07 15:22:00,70.0,36.0,29.98,North,-999,-999.0,-999.0,28,-99.99,,,-99.99,,2013-10-07 20:22:00,
2013-10-07 15:43:00,70.0,36.0,29.97,North,-999,-999.0,-999.0,28,-99.99,,,-99.99,,2013-10-07 20:43:00,
2013-10-07 16:23:00,72.0,37.0,29.96,North,-999,-999.0,-999.0,28,-99.99,,,-99.99,,2013-10-07 21:23:00,
2013-10-07 16:43:00,72.0,37.0,29.95,North,-999,-999.0,-999.0,28,-99.99,,,-99.99,,2013-10-07 21:43:00,
2013-10-07 17:24:00,72.0,39.0,29.95,North,-999,-999.0,-999.0,30,-99.99,,,-99.99,,2013-10-07 22:24:00,
2013-10-07 17:43:00,70.0,39.0,29.94,North,-999,-999.0,-999.0,32,-99.99,,,-99.99,,2013-10-07 22:43:00,
2013-10-07 18:22:00,70.0,43.0,29.93,North,-999,-999.0,-999.0,37,-99.99,,,-99.99,,2013-10-07 23:22:00,
2013-10-07 18:42:00,66.0,45.0,29.93,North,-999,-999.0,-999.0,45,-99.99,,,-99.99,,2013-10-07 23:42:00,
2013-10-07 19:22:00,63.0,45.0,29.93,North,-999,-999.0,-999.0,51,-99.99,,,-99.99,,2013-10-08 00:22:00,
2013-10-07 19:42:00,61.0,45.0,29.93,North,-999,-999.0,-999.0,55,-99.99,,,-99.99,,2013-10-08 00:42:00,
2013-10-07 20:21:00,59.0,45.0,29.93,North,-999,-999.0,-999.0,58,-99.99,,,-99.99,,2013-10-08 01:21:00,
2013-10-07 20:42:00,57.0,45.0,29.93,North,-999,-999.0,-999.0,62,-99.99,,,-99.99,,2013-10-08 01:42:00,
2013-10-07 21:22:00,55.0,43.0,29.94,North,-999,-999.0,-999.0,62,-99.99,,,-99.99,,2013-10-08 02:22:00,
2013-10-07 21:42:00,54.0,43.0,29.93,North,-999,-999.0,-999.0,66,-99.99,,,-99.99,,2013-10-08 02:42:00,
2013-10-07 22:22:00,52.0,43.0,29.92,North,-999,-999.0,-999.0,71,-99.99,,,-99.99,,2013-10-08 03:22:00,
2013-10-07 22:44:00,52.0,43.0,29.91,North,-999,-999.0,-999.0,71,-99.99,,,-99.99,,2013-10-08 03:44:00,
2013-10-07 23:23:00,48.0,43.0,29.91,North,-999,-999.0,-999.0,81,-99.99,,,-99.99,,2013-10-08 04:23:00,
2013-10-07 23:43:00,48.0,43.0,29.91,North,-999,-999.0,-999.0,81,-99.99,,,-99.99,,2013-10-08 04:43:00,